W5TTY Weather Reports


time (UTC)temp
F
wind
direction
speed
knots
gust
knots
rain 1hr
in
rain 24hr
in
rain mn
in
humidity
%
barometer
mb
20220525140319 65 261 0.0 0.9 0.00 0.01 0.00 89 1009.7
20220525135824 65 261 0.0 0.9 0.00 0.01 0.00 89 1009.8
20220525135330 64 233 0.0 0.9 0.00 0.01 0.00 89 1009.8
20220525134818 64 237 0.0 0.9 0.00 0.01 0.00 89 1009.8
20220525134324 64 240 0.0 0.9 0.00 0.01 0.00 89 1009.7
20220525133831 64 247 0.0 0.9 0.00 0.01 0.00 89 1009.7
20220525133318 64 240 0.0 0.9 0.00 0.01 0.00 89 1009.7
20220525132830 63 254 0.0 0.9 0.00 0.01 0.00 89 1009.5
20220525132335 63 240 0.0 0.9 0.00 0.01 0.00 89 1009.5
20220525131819 63 238 0.0 0.9 0.00 0.01 0.00 89 1009.5
20220525131325 63 258 0.0 0.9 0.00 0.01 0.00 89 1009.5
20220525130831 63 252 0.0 0.9 0.00 0.01 0.00 89 1009.5
20220525130317 63 242 0.0 0.9 0.00 0.01 0.00 89 1009.5
20220525125821 62 232 0.0 0.9 0.00 0.01 0.00 89 1009.5
20220525125322 62 252 0.0 0.9 0.00 0.01 0.00 89 1009.4
20220525124832 62 249 0.0 0.9 0.00 0.01 0.00 89 1009.2
20220525124315 62 244 0.0 0.9 0.00 0.01 0.00 88 1009.1
20220525123821 62 262 0.0 0.9 0.00 0.01 0.00 88 1009.0
20220525123329 62 263 0.0 0.9 0.00 0.01 0.00 88 1008.7
20220525122812 62 263 0.9 0.9 0.00 0.01 0.00 88 1008.8
20220525122318 62 244 0.0 0.9 0.00 0.01 0.00 88 1008.7
20220525121831 62 262 0.0 0.9 0.00 0.01 0.00 88 1008.7
20220525121317 62 266 0.0 0.9 0.00 0.01 0.00 88 1008.5
20220525120825 62 243 0.0 0.9 0.00 0.01 0.00 88 1008.6
20220525120312 62 259 0.0 0.9 0.00 0.01 0.00 88 1008.6
20220525115820 62 257 0.9 0.9 0.00 0.01 0.00 88 1008.6
20220525115327 62 214 0.0 0.9 0.00 0.01 0.00 88 1008.6
20220525114814 62 264 0.0 0.9 0.00 0.01 0.00 88 1008.7
20220525114322 62 248 0.0 0.9 0.00 0.01 0.00 88 1008.6
20220525113837 62 260 0.0 0.9 0.00 0.01 0.00 88 1008.5
20220525113324 62 263 0.0 0.9 0.00 0.01 0.00 88 1008.7
20220525112833 62 254 0.0 0.9 0.00 0.01 0.00 87 1008.8
20220525112320 62 272 0.0 0.9 0.00 0.01 0.00 87 1008.8
20220525111823 62 232 0.0 0.9 0.00 0.01 0.00 87 1008.7
20220525111328 62 280 0.0 0.9 0.00 0.01 0.00 88 1008.6
20220525110815 62 272 0.0 0.9 0.00 0.01 0.00 87 1008.6
20220525110320 62 268 0.0 0.9 0.00 0.01 0.00 87 1008.6
20220525105833 62 258 0.0 0.9 0.00 0.01 0.00 87 1008.3
20220525105318 62 304 0.0 0.9 0.00 0.01 0.00 87 1008.0
20220525104822 62 287 0.0 0.9 0.00 0.01 0.00 87 1007.2
20220525104329 62 202 0.0 0.9 0.00 0.01 0.00 87 1005.9
20220525103812 62 204 0.0 0.9 0.00 0.01 0.00 87 1005.9
20220525103319 62 187 0.0 0.9 0.00 0.01 0.00 87 1005.7
20220525102823 62 130 0.0 0.9 0.00 0.01 0.00 87 1005.2
20220525102311 62 177 0.0 0.9 0.00 0.01 0.00 87 1004.7
20220525101819 62 123 0.0 0.9 0.00 0.01 0.00 87 1004.3
20220525101327 62 144 0.0 0.9 0.00 0.01 0.00 87 1004.1
20220525100815 62 118 0.0 0.9 0.00 0.01 0.00 87 1004.1
20220525100322 62 88 0.0 0.9 0.00 0.01 0.00 87 1003.9
20220525095833 62 85 0.0 0.9 0.00 0.01 0.00 87 1003.4
20220525095321 62 96 0.0 0.9 0.00 0.01 0.00 87 1003.6
20220525094829 62 153 0.0 0.0 0.00 0.01 0.00 86 1003.9
20220525094316 62 107 0.0 0.0 0.00 0.01 0.00 86 1002.9
20220525093824 62 76 0.0 0.0 0.00 0.01 0.00 86 1002.9
20220525093339 62 109 0.0 0.0 0.00 0.01 0.00 86 1003.3
20220525092814 63 91 0.0 0.0 0.00 0.01 0.00 86 1003.9
20220525092328 63 134 0.0 0.0 0.00 0.01 0.00 86 1004.5
20220525091816 63 97 0.0 0.0 0.00 0.01 0.00 86 1004.2
20220525091323 63 84 0.0 0.0 0.00 0.01 0.00 86 1005.4
20220525090831 63 106 0.0 0.0 0.00 0.01 0.00 86 1007.5
20220525090318 63 114 0.0 0.0 0.00 0.01 0.00 86 1008.4
20220525085827 63 144 0.0 0.9 0.00 0.01 0.00 86 1008.6
20220525085315 63 175 0.0 0.9 0.00 0.01 0.00 86 1009.1
20220525084819 63 132 0.0 0.9 0.00 0.01 0.00 86 1009.2
20220525084328 63 159 0.0 0.9 0.00 0.01 0.00 86 1009.7
20220525083816 63 186 0.0 0.9 0.00 0.01 0.00 86 1009.7
20220525083329 63 192 0.0 0.9 0.00 0.01 0.00 85 1009.7
20220525082818 63 119 0.0 0.0 0.00 0.01 0.00 85 1009.4
20220525082325 63 83 0.0 0.0 0.00 0.01 0.00 85 1009.5
20220525081811 63 65 0.0 0.0 0.00 0.01 0.00 85 1009.5
20220525081320 63 47 0.0 0.0 0.00 0.01 0.00 85 1009.7
20220525080829 63 48 0.0 0.0 0.00 0.01 0.00 85 1010.0
20220525080318 63 214 0.0 0.0 0.00 0.01 0.00 85 1010.1
20220525075827 63 213 0.0 0.0 0.00 0.01 0.00 85 1010.3
20220525075314 63 213 0.0 0.0 0.00 0.01 0.00 85 1011.0
20220525074824 63 232 0.0 0.0 0.00 0.01 0.00 85 1011.3
20220525074311 63 244 0.0 0.0 0.00 0.01 0.00 85 1011.4
20220525073818 63 257 0.0 0.0 0.00 0.01 0.00 85 1011.2
20220525073326 63 274 0.0 0.0 0.00 0.01 0.00 85 1011.1
20220525072813 63 253 0.0 0.0 0.00 0.01 0.00 85 1011.1
20220525072327 63 337 0.0 0.0 0.00 0.01 0.00 84 1010.9
20220525071813 63 347 0.0 0.0 0.00 0.01 0.00 84 1011.0
20220525071322 63 284 0.0 0.0 0.00 0.01 0.00 84 1011.1
20220525070830 63 283 0.0 0.0 0.00 0.01 0.00 84 1011.1
20220525070318 63 283 0.0 0.0 0.00 0.01 0.00 84 1011.0
20220525065822 63 281 0.0 0.0 0.00 0.01 0.00 84 1011.2
20220525065338 63 286 0.0 0.9 0.00 0.01 0.00 84 1011.2
20220525064905 63 299 0.0 0.9 0.00 0.01 0.00 84 1011.2
20220525064355 63 267 0.0 0.9 0.00 0.01 0.00 84 1011.3
20220525063845 63 292 0.0 0.0 0.00 0.01 0.00 84 1011.1
20220525063357 63 302 0.0 0.9 0.00 0.01 0.00 83 1011.0
20220525062821 63 286 0.0 0.9 0.00 0.01 0.00 83 1010.6
20220525062329 63 313 0.0 0.0 0.00 0.01 0.00 83 1011.0
20220525061816 64 248 0.0 0.0 0.00 0.01 0.00 83 1011.2
20220525061317 64 289 0.0 0.0 0.00 0.01 0.00 83 1010.7
20220525060831 64 296 0.0 0.9 0.00 0.01 0.00 83 1010.8
20220525055811 64 65 0.0 0.9 0.00 0.01 0.00 83 1008.9
20220525055317 64 347 0.0 0.9 0.00 0.01 0.00 83 1009.5
20220525054827 64 69 0.0 0.9 0.00 0.01 0.00 83 1008.8
20220525054313 64 63 0.0 0.9 0.01 0.01 0.00 83 1008.4
20220525053819 64 47 0.0 0.9 0.01 0.01 0.00 83 1008.3
20220525053328 64 39 0.0 0.9 0.01 0.01 0.00 82 1008.0
20220525052814 65 11 0.0 0.9 0.01 0.01 0.00 82 1007.9
20220525052320 65 32 0.0 0.9 0.01 0.01 0.00 82 1008.0
20220525051832 65 355 0.0 0.9 0.01 0.01 0.00 82 1007.9
20220525051317 66 10 0.0 0.9 0.01 0.01 0.00 82 1008.1
20220525050822 66 5 0.0 10.4 0.01 0.01 0.00 82 1008.1
20220525050327 67 355 0.0 11.3 0.01 0.01 0.00 82 1008.6
20220525045811 67 360 4.3 15.6 0.01 0.01 0.01 81 1008.7
20220525045315 69 360 10.4 23.5 0.01 0.01 0.01 81 1008.6
20220525044815 69 327 14.8 29.5 0.01 0.01 0.01 82 1008.6
20220525044328 71 284 15.6 31.3 0.00 0.00 0.00 81 1008.2
20220525043815 72 314 20.0 31.3 0.00 0.00 0.00 81 1008.1
20220525043319 73 325 13.0 22.6 0.00 0.00 0.00 82 1008.7
20220525042828 73 269 4.3 7.0 0.00 0.00 0.00 82 1008.1
20220525042315 73 31 2.6 4.3 0.00 0.00 0.00 82 1007.6
20220525041823 73 80 2.6 6.1 0.00 0.00 0.00 82 1007.4
20220525041311 73 83 3.5 6.1 0.00 0.00 0.00 82 1007.1
20220525040820 73 74 2.6 6.1 0.00 0.00 0.00 82 1006.9
20220525040332 73 86 2.6 7.0 0.00 0.00 0.00 82 1006.9
20220525035819 73 107 4.3 7.0 0.00 0.00 0.00 82 1006.9
20220525035328 73 100 3.5 7.0 0.00 0.00 0.00 81 1006.8
20220525034816 73 94 3.5 7.0 0.00 0.00 0.00 81 1006.8
20220525034323 73 58 3.5 7.0 0.00 0.00 0.00 81 1006.8
20220525033829 73 87 4.3 7.0 0.00 0.00 0.00 81 1006.8
20220525033315 73 84 4.3 7.0 0.00 0.00 0.00 81 1006.7
20220525032822 73 84 3.5 7.8 0.00 0.00 0.00 81 1006.7
20220525032331 73 72 3.5 7.8 0.00 0.00 0.00 80 1006.6
20220525031325 73 79 4.3 7.0 0.00 0.00 0.00 80 1006.3
20220525030826 74 78 4.3 7.8 0.00 0.00 0.00 80 1006.1
20220525030313 74 77 5.2 7.8 0.00 0.00 0.00 80 1006.2
20220525025819 74 88 4.3 7.8 0.00 0.00 0.00 80 1006.3
20220525025332 74 106 3.5 7.0 0.00 0.00 0.00 80 1006.1
20220525024818 74 96 2.6 7.8 0.00 0.00 0.00 80 1006.2
20220525024322 74 86 4.3 7.8 0.00 0.00 0.00 80 1006.0
20220525023828 74 107 3.5 6.1 0.00 0.00 0.00 80 1005.9
20220525023316 74 122 3.5 7.0 0.00 0.00 0.00 80 1005.9
20220525022822 74 115 4.3 7.0 0.00 0.00 0.00 79 1005.7
20220525022335 74 124 3.5 7.0 0.00 0.00 0.00 79 1005.7
20220525021821 74 138 3.5 7.0 0.00 0.00 0.00 79 1005.7
20220525021325 74 126 4.3 7.0 0.00 0.00 0.00 79 1005.5
20220525020825 74 122 4.3 7.0 0.00 0.00 0.00 79 1005.5
20220525020331 75 126 3.5 4.3 0.00 0.00 0.00 79 1005.5
20220525015815 75 131 3.5 4.3 0.00 0.00 0.00 79 1005.4
20220525015322 75 130 3.5 4.3 0.00 0.00 0.00 79 1005.5
20220525014836 75 134 2.6 4.3 0.00 0.00 0.00 79 1005.6
20220525014324 76 136 1.7 4.3 0.00 0.00 0.00 79 1005.7
20220525013829 76 132 2.6 4.3 0.00 0.00 0.00 79 1005.8
20220525013317 76 134 3.5 4.3 0.00 0.00 0.00 79 1005.7
20220525012817 76 106 2.6 5.2 0.00 0.00 0.00 79 1005.6
20220525012325 76 124 1.7 5.2 0.00 0.00 0.00 79 1005.5
20220525011831 76 135 2.6 7.8 0.00 0.00 0.00 79 1005.2
20220525011314 77 139 2.6 7.8 0.00 0.00 0.00 79 1005.0
20220525010826 77 126 4.3 8.7 0.00 0.00 0.00 78 1004.8
20220525010312 77 139 4.3 13.0 0.00 0.00 0.00 78 1004.7
20220525005815 77 135 7.8 13.0 0.00 0.00 0.00 78 1004.5
20220525005321 77 134 6.1 12.2 0.00 0.00 0.00 78 1004.4
20220525004825 77 153 7.8 13.9 0.00 0.00 0.00 78 1004.3
20220525004337 78 155 7.0 13.9 0.00 0.00 0.00 78 1004.2
20220525003821 78 113 5.2 13.0 0.00 0.00 0.00 78 1004.2
20220525003323 78 140 8.7 15.6 0.00 0.00 0.00 78 1004.3
20220525002825 78 141 8.7 15.6 0.00 0.00 0.00 78 1004.3
20220525002330 78 132 11.3 16.5 0.00 0.00 0.00 78 1004.2
20220525001815 78 140 10.4 16.5 0.00 0.00 0.00 78 1004.2
20220525001317 78 130 10.4 14.8 0.00 0.00 0.00 78 1004.1
20220525000831 79 138 9.6 13.9 0.00 0.00 0.00 78 1004.0
20220525000315 79 150 8.7 13.0 0.00 0.00 0.00 78 1004.0
20220524235813 79 136 5.2 10.4 0.00 0.00 0.00 78 1003.9
20220524235318 79 130 6.1 13.0 0.00 0.00 0.00 79 1003.9
20220524234821 79 138 7.0 13.9 0.00 0.00 0.00 79 1004.0
20220524234327 79 121 7.8 14.8 0.00 0.00 0.00 79 1003.9
20220524233838 79 135 7.8 16.5 0.00 0.00 0.00 79 1004.0
20220524233319 79 125 8.7 16.5 0.00 0.00 0.00 79 1004.0
20220524232824 80 103 12.2 16.5 0.00 0.00 0.00 79 1004.0
20220524232312 80 148 7.8 14.8 0.00 0.00 0.00 79 1004.0
20220524231816 80 136 7.0 14.8 0.00 0.00 0.00 79 1004.1
20220524231322 80 137 7.0 16.5 0.00 0.00 0.00 79 1004.1
20220524230811 80 145 10.4 15.6 0.00 0.00 0.00 79 1004.2
20220524230321 80 141 6.1 13.9 0.00 0.00 0.00 79 1004.3
20220524225827 80 169 5.2 10.4 0.00 0.00 0.00 79 1004.4
20220524225311 79 151 4.3 6.1 0.00 0.00 0.00 79 1004.2
20220524224820 79 148 2.6 7.0 0.00 0.00 0.00 79 1004.2
20220524224325 79 159 3.5 10.4 0.00 0.00 0.00 79 1004.3
20220524223830 79 106 7.0 10.4 0.00 0.00 0.00 79 1004.5
20220524223318 79 152 6.1 11.3 0.00 0.00 0.00 79 1004.6
20220524222822 79 144 7.8 12.2 0.00 0.00 0.00 79 1004.7
20220524222337 79 104 7.0 12.2 0.00 0.00 0.00 79 1004.7
20220524221825 79 144 7.0 14.8 0.00 0.00 0.00 79 1004.7
20220524221333 80 136 8.7 14.8 0.00 0.00 0.00 79 1004.7
20220524220821 80 141 7.8 17.4 0.00 0.00 0.00 79 1004.7
20220524220329 80 123 8.7 17.4 0.00 0.00 0.00 80 1004.7
20220524215815 81 115 7.8 13.9 0.00 0.00 0.00 80 1004.7
20220524215321 81 127 7.8 14.8 0.00 0.00 0.00 80 1004.8
20220524214833 81 134 9.6 15.6 0.00 0.00 0.00 81 1005.0
20220524214321 81 156 5.2 15.6 0.00 0.00 0.00 81 1005.0
20220524213830 81 130 8.7 14.8 0.00 0.00 0.00 81 1005.0
20220524213317 81 107 8.7 14.8 0.00 0.00 0.00 81 1005.2
20220524212824 81 124 8.7 13.9 0.00 0.00 0.00 81 1005.2
20220524212311 81 158 7.0 14.8 0.00 0.00 0.00 81 1005.4
20220524211820 81 115 9.6 15.6 0.00 0.00 0.00 81 1005.5
20220524211325 81 132 8.7 15.6 0.00 0.00 0.00 81 1005.5
20220524210811 80 121 7.8 13.0 0.00 0.00 0.00 81 1005.6
20220524210317 80 117 7.8 13.9 0.00 0.00 0.00 82 1005.7
20220524205830 80 161 8.7 13.9 0.00 0.00 0.00 81 1005.8
20220524205336 80 115 7.8 13.9 0.00 0.00 0.00 82 1005.9
20220524204823 80 121 6.1 13.9 0.00 0.00 0.00 82 1006.0
20220524204324 80 129 5.2 13.9 0.00 0.00 0.00 81 1006.0
20220524203811 80 111 8.7 13.0 0.00 0.00 0.00 82 1006.1
20220524203315 80 113 7.0 13.9 0.00 0.00 0.00 82 1006.1
20220524202823 80 127 8.7 13.9 0.00 0.00 0.00 82 1006.3
20220524202311 80 109 7.0 9.6 0.00 0.00 0.00 82 1006.2
20220524201817 81 114 5.2 11.3 0.00 0.00 0.00 82 1006.3
20220524201331 81 121 7.0 12.2 0.00 0.00 0.00 83 1006.4
20220524200818 81 146 6.1 12.2 0.00 0.00 0.00 83 1006.5
20220524200326 82 104 7.0 12.2 0.00 0.00 0.00 83 1006.5
20220524195812 82 125 7.8 13.9 0.00 0.00 0.00 83 1006.5
20220524195321 82 105 7.8 16.5 0.00 0.00 0.00 84 1006.5
20220524194828 82 152 7.8 16.5 0.00 0.00 0.00 84 1006.6
20220524194316 82 161 5.2 12.2 0.00 0.00 0.00 84 1006.7
20220524193829 81 136 5.2 15.6 0.00 0.00 0.00 84 1006.8
20220524193317 81 106 8.7 19.1 0.00 0.00 0.00 84 1006.9
20220524192824 81 104 10.4 19.1 0.00 0.00 0.00 85 1006.9
20220524192312 82 142 9.6 17.4 0.00 0.00 0.00 85 1007.0
20220524191819 82 115 8.7 14.8 0.00 0.00 0.00 85 1006.9
20220524191325 82 113 3.5 12.2 0.00 0.00 0.00 86 1007.2
20220524190831 82 147 7.8 13.9 0.00 0.00 0.00 86 1007.3
20220524190316 81 121 10.4 14.8 0.00 0.00 0.00 86 1007.3
20220524185819 81 98 7.0 14.8 0.00 0.00 0.00 86 1007.3
20220524185327 81 154 6.1 11.3 0.00 0.00 0.00 86 1007.4
20220524184811 81 171 5.2 12.2 0.00 0.00 0.00 86 1007.5
20220524184324 81 153 5.2 12.2 0.00 0.00 0.00 87 1007.7
20220524183813 80 177 1.7 13.0 0.00 0.00 0.00 87 1007.7
20220524183321 80 178 7.0 13.0 0.00 0.00 0.00 87 1007.7
20220524182829 80 163 7.8 13.9 0.00 0.00 0.00 87 1007.8
20220524182317 80 150 7.8 13.9 0.00 0.00 0.00 87 1007.7
20220524181825 80 130 5.2 13.9 0.00 0.00 0.00 87 1007.7
20220524181312 80 130 8.7 14.8 0.00 0.00 0.00 87 1007.8
20220524180827 80 144 9.6 14.8 0.00 0.00 0.00 87 1007.8
20220524180314 81 148 7.8 14.8 0.00 0.00 0.00 88 1007.7
20220524175822 81 146 6.1 13.9 0.00 0.00 0.00 88 1007.7
20220524175311 80 165 7.0 13.0 0.00 0.00 0.00 88 1007.7
20220524174819 80 197 7.0 13.0 0.00 0.00 0.00 88 1007.7
20220524174327 81 143 7.8 13.0 0.00 0.00 0.00 88 1007.7
20220524173816 81 155 4.3 13.9 0.00 0.00 0.00 89 1007.7
20220524173322 80 133 2.6 8.7 0.00 0.00 0.00 89 1007.6
20220524172828 80 149 3.5 10.4 0.00 0.00 0.00 89 1007.6
20220524172314 79 209 6.1 10.4 0.00 0.00 0.00 89 1007.6
20220524171825 79 111 3.5 10.4 0.00 0.00 0.00 89 1007.5
20220524171327 79 136 6.1 10.4 0.00 0.00 0.00 89 1007.5
20220524170812 79 169 3.5 9.6 0.00 0.00 0.00 90 1007.4
20220524170316 78 158 5.2 11.3 0.00 0.00 0.00 89 1007.4
20220524165821 78 154 3.5 8.7 0.00 0.00 0.00 89 1007.4
20220524165325 78 150 4.3 8.7 0.00 0.00 0.00 89 1007.4
20220524164811 78 148 2.6 12.2 0.00 0.00 0.00 89 1007.4
20220524164316 78 139 5.2 12.2 0.00 0.00 0.00 89 1007.4
20220524163831 77 150 5.2 10.4 0.00 0.00 0.00 89 1007.3
20220524163315 77 162 4.3 13.9 0.00 0.00 0.00 89 1007.4
20220524162820 77 171 5.2 11.3 0.00 0.00 0.00 89 1007.3
20220524162326 77 216 7.0 12.2 0.00 0.00 0.00 89 1007.3
20220524161831 77 179 3.5 12.2 0.00 0.00 0.00 89 1007.3
20220524161315 76 173 6.1 12.2 0.00 0.00 0.00 89 1007.4
20220524160822 76 168 7.8 13.0 0.00 0.00 0.00 89 1007.5
20220524160335 76 182 5.2 13.0 0.00 0.00 0.00 89 1007.5
20220524155820 76 240 4.3 13.9 0.00 0.00 0.00 89 1007.6
20220524155326 76 155 4.3 13.9 0.00 0.00 0.00 89 1007.6
20220524154813 75 146 7.8 13.0 0.00 0.00 0.00 89 1007.6
20220524154316 75 175 7.0 15.6 0.00 0.00 0.00 89 1007.7
20220524153819 75 153 6.1 13.9 0.00 0.00 0.00 89 1007.7
20220524153325 75 121 5.2 9.6 0.00 0.00 0.00 89 1007.8
20220524152811 75 112 5.2 11.3 0.00 0.00 0.00 89 1008.0
20220524152316 75 163 6.1 13.9 0.00 0.00 0.00 89 1008.2
20220524151829 75 134 4.3 9.6 0.00 0.00 0.00 89 1008.2
20220524151314 75 131 4.3 12.2 0.00 0.00 0.00 89 1008.3
20220524150820 74 122 7.8 13.0 0.00 0.00 0.00 89 1008.3
20220524150326 74 127 6.1 14.8 0.00 0.00 0.00 89 1008.4
20220524145819 74 123 7.8 14.8 0.00 0.00 0.00 89 1008.4
20220524145325 74 109 7.0 14.8 0.00 0.00 0.00 89 1008.6
20220524144837 73 101 6.1 13.0 0.00 0.00 0.00 89 1008.5
20220524144322 73 157 7.8 13.0 0.00 0.00 0.00 89 1008.6
20220524143830 73 141 7.8 13.0 0.00 0.00 0.00 89 1008.7
20220524143318 73 118 8.7 12.2 0.00 0.00 0.00 89 1008.8
20220524142821 73 101 5.2 11.3 0.00 0.00 0.00 89 1009.0
20220524142324 73 129 5.2 10.4 0.00 0.00 0.00 88 1009.0
20220524141812 72 113 7.0 10.4 0.00 0.00 0.00 88 1009.2
20220524141320 72 98 5.2 11.3 0.00 0.00 0.00 88 1009.2
20220524140823 72 75 7.0 11.3 0.00 0.00 0.00 88 1009.3